{"data":{"norad_id":60320,"intl_designator":"2024-133V","name":"STARLINK-32199","alt_names":[],"object_type":"PAYLOAD","status":"ACTIVE","operator":null,"country":"US","launch_date":"2024-07-28","launch_site_code":"AFWTR","launch_vehicle":null,"mission":null,"orbit_class":"UNKNOWN","rcs_meters":null,"size_class":null,"mass_kg":null,"dimensions":null,"purposes":["comms"],"wikipedia_slug":null,"has_3d_model":false,"image_url":null,"decayed_at":null,"tle_current":{"epoch":"2026-05-24T20:40:01.356384Z","epoch_age_seconds":83716,"freshness":"FRESH","line1":"1 60320U 24133V   26144.86112681  .00000413  00000+0  26050-4 0  9998","line2":"2 60320  53.1618 303.1694 0000998 106.7957 253.3153 15.30198396103308","mean_motion":15.30198396,"eccentricity":9.98e-5,"inclination_deg":53.1618,"raan_deg":303.1694,"arg_perigee_deg":106.7957,"mean_anomaly_deg":253.3153,"bstar":2.605e-5,"rev_number":10330,"period_min":94.105444350498,"perigee_km":474.53589366389,"apogee_km":475.90382369288,"semimajor_km":6853.3568586784,"source":"CELESTRAK","updated_at":"2026-05-25T13:38:19.232004Z"}}}